Weather History for Chicago DuPage, IL

Change the Weather History Date:

Sunday, October 13, 2013

  Actual Average Record
Temperature  
Mean Temperature 51 °F 53 °F  
Max Temperature 64 °F 64 °F 78 °F (1996)
Min Temperature 37 °F 42 °F 31 °F (2006)
Degree Days  
Heating Degree Days 14 12  
Month to date heating degree days 70 133  
Since 1 July heating degree days 195 244  
Cooling Degree Days 0 0  
Month to date cooling degree days 16 11  
Year to date cooling degree days 745 814  
Growing Degree Days 2 (Base 50)    
Moisture  
Dew Point 38 °F    
Average Humidity 68    
Maximum Humidity 97    
Minimum Humidity 37    
Precipitation  
Precipitation 0.00 in 0.10 in 2.51 in (2001)
Month to date precipitation 0.60 1.41  
Year to date precipitation 30.06 30.33  
Sea Level Pressure  
Sea Level Pressure 30.34 in    
Wind  
Wind Speed 5 mph (NNW)    
Max Wind Speed 13 mph    
Max Gust Speed 18 mph    
Visibility 10 miles    
Events      
T = Trace of Precipitation, MM = Missing Value Source: NWS Daily Summary

Daily Weather History Graph

Daily Weather History Graph

Search for Another Location

Airport:

Trip Planner

Search our weather history database for the weather conditions in past years. The results will help you decide how hot, cold, wet, or windy it might be!

Date:

Astronomy

Oct. 13, 2013 Rise Set
Actual Time 7:03 AM CDT 6:14 PM CDT
Civil Twilight 6:35 AM CDT 6:42 PM CDT
Nautical Twilight 6:03 AM CDT 7:14 PM CDT
Astronomical Twilight 5:30 AM CDT 7:46 PM CDT
Moon 3:10 PM CDT (10/13) 1:07 AM CDT (10/13)
Length of Visible Light 12h 06m
Length of Day
11h 10m
Waxing Gibbous, 69% of the Moon is Illuminated
Oct 13
Waxing Gibbous
Oct 18
Full
Oct 26
Last Quarter
Nov 3
New
Nov 9
First Quarter

Hourly Weather History & Observations

Time (CDT) Temp. Windchill Dew Point Humidity Pressure Visibility Wind Dir Wind Speed Gust Speed Precip Events Conditions
12:52 AM 45.0 °F - 41.0 °F 86% 30.22 in 10.0 mi Calm Calm - N/A   Clear
1:52 AM 43.0 °F - 39.9 °F 89% 30.23 in 10.0 mi Calm Calm - N/A   Clear
2:52 AM 41.0 °F - 37.9 °F 89% 30.23 in 10.0 mi Calm Calm - N/A   Clear
3:52 AM 39.9 °F - 39.0 °F 97% 30.25 in 10.0 mi Calm Calm - N/A   Clear
4:52 AM 42.1 °F - 39.9 °F 92% 30.28 in 10.0 mi Calm Calm - N/A   Clear
5:52 AM 39.0 °F - 36.0 °F 89% 30.30 in 10.0 mi Calm Calm - N/A   Clear
6:52 AM 41.0 °F 39.0 °F 36.0 °F 82% 30.32 in 10.0 mi North 3.5 mph - N/A   Clear
7:52 AM 41.0 °F 39.0 °F 37.0 °F 86% 30.35 in 10.0 mi North 3.5 mph - N/A   Clear
8:52 AM 51.1 °F - 42.1 °F 71% 30.37 in 10.0 mi NNW 5.8 mph - N/A   Clear
9:52 AM 55.9 °F - 43.0 °F 62% 30.38 in 10.0 mi NW 6.9 mph - N/A   Clear
10:52 AM 57.9 °F - 39.9 °F 51% 30.39 in 10.0 mi NW 12.7 mph - N/A   Clear
11:52 AM 61.0 °F - 39.9 °F 46% 30.39 in 10.0 mi NNW 10.4 mph - N/A   Clear
12:52 PM 62.1 °F - 39.0 °F 43% 30.38 in 10.0 mi WNW 10.4 mph - N/A   Clear
1:52 PM 62.1 °F - 39.0 °F 43% 30.36 in 10.0 mi NW 8.1 mph - N/A   Clear
2:52 PM 63.0 °F - 36.0 °F 37% 30.36 in 10.0 mi WNW 9.2 mph - N/A   Clear
3:52 PM 64.0 °F - 37.9 °F 38% 30.35 in 10.0 mi North 10.4 mph - N/A   Clear
4:52 PM 62.1 °F - 37.0 °F 39% 30.35 in 10.0 mi North 5.8 mph - N/A   Clear
5:52 PM 59.0 °F - 34.0 °F 39% 30.36 in 10.0 mi NNW 5.8 mph - N/A   Clear
6:52 PM 51.1 °F - 36.0 °F 56% 30.37 in 10.0 mi NNE 3.5 mph - N/A   Clear
7:52 PM 46.0 °F 43.9 °F 37.0 °F 71% 30.38 in 10.0 mi North 4.6 mph - N/A   Clear
8:52 PM 46.0 °F 43.9 °F 37.9 °F 73% 30.40 in 10.0 mi NNW 4.6 mph - N/A   Clear
9:52 PM 43.0 °F - 37.9 °F 82% 30.40 in 10.0 mi Calm Calm - N/A   Clear
10:52 PM 42.1 °F - 37.9 °F 85% 30.41 in 10.0 mi Calm Calm - N/A   Clear
11:52 PM 39.0 °F - 36.0 °F 89% 30.41 in 10.0 mi Calm Calm - N/A   Clear